TimeMDT,TemperatureF,Dew PointF,Humidity,Sea Level PressureIn,VisibilityMPH,Wind Direction,Wind SpeedMPH,Gust SpeedMPH,PrecipitationIn,Events,Conditions,WindDirDegrees,DateUTC
12:53 AM,44.1,28.0,53,30.04,10.0,North,6.9,-,N/A,,Clear,360,2013-10-23 06:53:00
1:53 AM,42.1,28.0,58,30.04,10.0,North,4.6,-,N/A,,Clear,350,2013-10-23 07:53:00
2:53 AM,37.9,28.0,68,30.03,10.0,West,9.2,-,N/A,,Clear,270,2013-10-23 08:53:00
3:53 AM,37.0,28.0,70,30.03,10.0,West,12.7,-,N/A,,Clear,270,2013-10-23 09:53:00
4:53 AM,35.1,28.0,76,30.04,10.0,West,11.5,-,N/A,,Clear,280,2013-10-23 10:53:00
5:53 AM,36.0,28.9,76,30.06,10.0,West,15.0,-,N/A,,Clear,270,2013-10-23 11:53:00
6:53 AM,36.0,28.9,76,30.07,10.0,West,12.7,-,N/A,,Clear,270,2013-10-23 12:53:00
7:53 AM,39.0,30.0,70,30.08,10.0,West,13.8,-,N/A,,Clear,260,2013-10-23 13:53:00
8:53 AM,45.0,30.9,58,30.08,10.0,West,15.0,-,N/A,,Clear,270,2013-10-23 14:53:00
9:53 AM,54.0,30.9,41,30.08,10.0,West,10.4,-,N/A,,Clear,270,2013-10-23 15:53:00
10:53 AM,61.0,30.9,32,30.06,10.0,West,6.9,-,N/A,,Clear,280,2013-10-23 16:53:00
11:53 AM,66.9,30.0,25,30.06,10.0,Calm,Calm,-,N/A,,Clear,0,2013-10-23 17:53:00
12:53 PM,71.1,26.1,19,30.03,10.0,NE,3.5,-,N/A,,Clear,40,2013-10-23 18:53:00
1:53 PM,73.0,26.1,17,30.01,10.0,NE,4.6,-,N/A,,Clear,50,2013-10-23 19:53:00
2:53 PM,73.0,27.0,18,30.01,10.0,East,6.9,-,N/A,,Clear,90,2013-10-23 20:53:00
3:53 PM,72.0,27.0,19,30.01,10.0,East,6.9,-,N/A,,Clear,100,2013-10-23 21:53:00
4:53 PM,71.1,26.1,19,30.02,10.0,East,6.9,-,N/A,,Clear,90,2013-10-23 22:53:00
5:53 PM,66.0,28.0,24,30.04,10.0,East,9.2,-,N/A,,Clear,80,2013-10-23 23:53:00
6:53 PM,57.9,28.9,33,30.08,10.0,East,8.1,-,N/A,,Clear,100,2013-10-24 00:53:00
7:53 PM,55.0,30.0,38,30.10,10.0,ESE,6.9,-,N/A,,Clear,110,2013-10-24 01:53:00
8:53 PM,53.1,30.0,41,30.11,10.0,ESE,9.2,-,N/A,,Clear,110,2013-10-24 02:53:00
9:53 PM,53.1,30.0,41,30.10,10.0,SE,5.8,-,N/A,,Clear,140,2013-10-24 03:53:00
10:53 PM,46.9,28.9,50,30.12,10.0,ENE,5.8,-,N/A,,Clear,60,2013-10-24 04:53:00
11:53 PM,43.0,28.9,58,30.12,10.0,NNE,3.5,-,N/A,,Clear,20,2013-10-24 05:53:00